Time,TemperatureF,DewpointF,PressureIn,WindDirection,WindDirectionDegrees,WindSpeedMPH,WindSpeedGustMPH,Humidity,HourlyPrecipIn,Conditions,Clouds,dailyrainin,SoftwareType,DateUTC
2013-06-23 00:11:00,59.0,40.0,-100.00,North,0,14.0,19.0,49,-99.99,,,-99.99,,2013-06-23 00:11:00,
2013-06-23 00:33:00,57.0,39.0,-100.00,North,0,14.0,17.0,49,-99.99,,,-99.99,,2013-06-23 00:33:00,
2013-06-23 00:42:00,57.0,39.0,-100.00,NNW,345,14.0,17.0,50,-99.99,,,-99.99,,2013-06-23 00:42:00,
2013-06-23 00:53:00,59.0,40.0,-100.00,NNW,340,17.0,26.0,49,-99.99,,,-99.99,,2013-06-23 00:53:00,
2013-06-23 01:01:00,60.0,41.0,-100.00,North,350,16.0,25.0,49,-99.99,,,-99.99,,2013-06-23 01:01:00,
2013-06-23 01:11:00,58.0,41.0,-100.00,North,0,18.0,22.0,51,-99.99,,,-99.99,,2013-06-23 01:11:00,
2013-06-23 01:32:00,58.0,39.0,-100.00,NNW,345,19.0,25.0,48,-99.99,,,-99.99,,2013-06-23 01:32:00,
2013-06-23 01:42:00,58.0,39.0,-100.00,NNW,345,16.0,24.0,48,-99.99,,,-99.99,,2013-06-23 01:42:00,
2013-06-23 01:52:00,58.0,38.0,-100.00,NNW,345,14.0,21.0,48,-99.99,,,-99.99,,2013-06-23 01:52:00,
2013-06-23 02:01:00,56.0,37.0,-100.00,North,350,17.0,25.0,49,-99.99,,,-99.99,,2013-06-23 02:01:00,
2013-06-23 02:11:00,55.0,37.0,-100.00,North,350,14.0,21.0,51,-99.99,,,-99.99,,2013-06-23 02:11:00,
2013-06-23 02:21:00,55.0,38.0,-100.00,North,355,17.0,22.0,52,-99.99,,,-99.99,,2013-06-23 02:21:00,
2013-06-23 02:31:00,53.0,38.0,-100.00,NNW,340,24.0,30.0,58,-99.99,,,-99.99,,2013-06-23 02:31:00,
2013-06-23 02:41:00,51.0,39.0,-100.00,North,5,19.0,30.0,62,-99.99,,,-99.99,,2013-06-23 02:41:00,
2013-06-23 02:52:00,50.0,38.0,-100.00,North,0,18.0,26.0,62,-99.99,,,-99.99,,2013-06-23 02:52:00,
2013-06-23 03:01:00,50.0,37.0,-100.00,North,0,20.0,26.0,61,-99.99,,,-99.99,,2013-06-23 03:01:00,
2013-06-23 03:11:00,49.0,37.0,-100.00,North,0,14.0,23.0,63,-99.99,,,-99.99,,2013-06-23 03:11:00,
2013-06-23 03:21:00,49.0,37.0,-100.00,North,0,11.0,18.0,63,-99.99,,,-99.99,,2013-06-23 03:21:00,
2013-06-23 03:31:00,49.0,36.0,-100.00,North,0,14.0,21.0,62,-99.99,,,-99.99,,2013-06-23 03:31:00,
2013-06-23 03:41:00,48.0,37.0,-100.00,North,5,11.0,18.0,65,-99.99,,,-99.99,,2013-06-23 03:41:00,
2013-06-23 03:51:00,47.0,37.0,-100.00,North,355,2.0,12.0,67,-99.99,,,-99.99,,2013-06-23 03:51:00,
2013-06-23 04:01:00,48.0,37.0,-100.00,NNE,25,4.0,5.0,66,-99.99,,,-99.99,,2013-06-23 04:01:00,
2013-06-23 04:11:00,46.0,37.0,-100.00,South,185,7.0,11.0,71,-99.99,,,-99.99,,2013-06-23 04:11:00,
2013-06-23 04:21:00,46.0,37.0,-100.00,SW,230,1.0,8.0,71,-99.99,,,-99.99,,2013-06-23 04:21:00,
2013-06-23 04:31:00,45.0,37.0,-100.00,SSW,210,2.0,2.0,73,-99.99,,,-99.99,,2013-06-23 04:31:00,
2013-06-23 04:42:00,45.0,37.0,-100.00,SW,220,4.0,5.0,73,-99.99,,,-99.99,,2013-06-23 04:42:00,
2013-06-23 04:52:00,44.0,37.0,-100.00,SW,235,7.0,9.0,75,-99.99,,,-99.99,,2013-06-23 04:52:00,
2013-06-23 05:01:00,45.0,38.0,-100.00,WSW,245,8.0,9.0,75,-99.99,,,-99.99,,2013-06-23 05:01:00,
2013-06-23 05:11:00,45.0,38.0,-100.00,SW,225,12.0,13.0,75,-99.99,,,-99.99,,2013-06-23 05:11:00,
2013-06-23 05:22:00,45.0,38.0,-100.00,SW,230,8.0,11.0,74,-99.99,,,-99.99,,2013-06-23 05:22:00,
2013-06-23 05:32:00,45.0,38.0,-100.00,SSW,210,7.0,9.0,75,-99.99,,,-99.99,,2013-06-23 05:32:00,
2013-06-23 05:41:00,44.0,38.0,-100.00,SW,220,10.0,11.0,76,-99.99,,,-99.99,,2013-06-23 05:41:00,
2013-06-23 05:51:00,45.0,38.0,-100.00,SW,220,14.0,15.0,75,-99.99,,,-99.99,,2013-06-23 05:51:00,
2013-06-23 06:02:00,46.0,38.0,-100.00,SSW,210,11.0,14.0,74,-99.99,,,-99.99,,2013-06-23 06:02:00,
2013-06-23 06:12:00,47.0,39.0,-100.00,SSW,210,14.0,17.0,72,-99.99,,,-99.99,,2013-06-23 06:12:00,
2013-06-23 06:33:00,48.0,39.0,-100.00,SW,220,16.0,18.0,70,-99.99,,,-99.99,,2013-06-23 06:33:00,
2013-06-23 06:43:00,48.0,38.0,-100.00,SW,220,14.0,17.0,69,-99.99,,,-99.99,,2013-06-23 06:43:00,
2013-06-23 06:52:00,48.0,38.0,-100.00,SW,225,14.0,17.0,68,-99.99,,,-99.99,,2013-06-23 06:52:00,
2013-06-23 07:02:00,48.0,38.0,-100.00,SW,220,13.0,16.0,67,-99.99,,,-99.99,,2013-06-23 07:02:00,
2013-06-23 07:12:00,48.0,38.0,-100.00,SW,225,11.0,13.0,67,-99.99,,,-99.99,,2013-06-23 07:12:00,
2013-06-23 07:34:00,47.0,37.0,-100.00,SW,235,6.0,12.0,67,-99.99,,,-99.99,,2013-06-23 07:34:00,
2013-06-23 07:43:00,47.0,37.0,-100.00,WSW,250,2.0,4.0,69,-99.99,,,-99.99,,2013-06-23 07:43:00,
2013-06-23 07:53:00,45.0,36.0,-100.00,SW,220,6.0,7.0,71,-99.99,,,-99.99,,2013-06-23 07:53:00,
2013-06-23 08:02:00,46.0,37.0,-100.00,South,190,9.0,10.0,70,-99.99,,,-99.99,,2013-06-23 08:02:00,
2013-06-23 08:11:00,43.0,36.0,-100.00,South,190,8.0,9.0,77,-99.99,,,-99.99,,2013-06-23 08:11:00,
2013-06-23 08:22:00,44.0,37.0,-100.00,ESE,120,2.0,7.0,76,-99.99,,,-99.99,,2013-06-23 08:22:00,
2013-06-23 08:42:00,44.0,37.0,-100.00,South,170,3.0,4.0,76,-99.99,,,-99.99,,2013-06-23 08:42:00,
2013-06-23 09:02:00,43.0,37.0,-100.00,SW,215,11.0,12.0,81,-99.99,,,-99.99,,2013-06-23 09:02:00,
2013-06-23 09:12:00,43.0,37.0,-100.00,South,190,11.0,12.0,81,-99.99,,,-99.99,,2013-06-23 09:12:00,
2013-06-23 09:34:00,42.0,38.0,-100.00,SSW,200,9.0,10.0,82,-99.99,,,-99.99,,2013-06-23 09:34:00,
2013-06-23 09:43:00,44.0,38.0,-100.00,SSW,205,16.0,17.0,81,-99.99,,,-99.99,,2013-06-23 09:43:00,
2013-06-23 10:11:00,41.0,37.0,-100.00,South,190,12.0,14.0,85,-99.99,,,-99.99,,2013-06-23 10:11:00,
2013-06-23 10:34:00,43.0,38.0,-100.00,South,190,12.0,13.0,83,-99.99,,,-99.99,,2013-06-23 10:34:00,
2013-06-23 10:43:00,41.0,37.0,-100.00,SSW,205,12.0,14.0,85,-99.99,,,-99.99,,2013-06-23 10:43:00,
2013-06-23 11:01:00,43.0,38.0,-100.00,North,0,1.0,8.0,83,-99.99,,,-99.99,,2013-06-23 11:01:00,
2013-06-23 11:33:00,43.0,37.0,-100.00,South,180,13.0,14.0,77,-99.99,,,-99.99,,2013-06-23 11:33:00,
2013-06-23 11:43:00,43.0,36.0,-100.00,SSE,165,12.0,13.0,77,-99.99,,,-99.99,,2013-06-23 11:43:00,
2013-06-23 11:53:00,42.0,36.0,-100.00,South,180,12.0,14.0,78,-99.99,,,-99.99,,2013-06-23 11:53:00,
2013-06-23 12:01:00,40.0,36.0,-100.00,South,180,12.0,13.0,83,-99.99,,,-99.99,,2013-06-23 12:01:00,
2013-06-23 12:42:00,42.0,37.0,-100.00,South,185,11.0,12.0,83,-99.99,,,-99.99,,2013-06-23 12:42:00,
2013-06-23 13:43:00,49.0,39.0,-100.00,South,170,11.0,15.0,68,-99.99,,,-99.99,,2013-06-23 13:43:00,
2013-06-23 14:04:00,49.0,39.0,-100.00,South,180,11.0,12.0,69,-99.99,,,-99.99,,2013-06-23 14:04:00,
2013-06-23 14:44:00,51.0,40.0,-100.00,SSW,200,9.0,12.0,66,-99.99,,,-99.99,,2013-06-23 14:44:00,
2013-06-23 14:52:00,52.0,40.0,-100.00,South,190,9.0,12.0,63,-99.99,,,-99.99,,2013-06-23 14:52:00,
2013-06-23 15:05:00,53.0,40.0,-100.00,South,175,6.0,13.0,59,-99.99,,,-99.99,,2013-06-23 15:05:00,
2013-06-23 15:11:00,55.0,40.0,-100.00,South,175,5.0,9.0,56,-99.99,,,-99.99,,2013-06-23 15:11:00,
2013-06-23 15:43:00,60.0,36.0,-100.00,NE,55,3.0,7.0,40,-99.99,,,-99.99,,2013-06-23 15:43:00,
2013-06-23 15:52:00,59.0,34.0,-100.00,North,10,3.0,7.0,37,-99.99,,,-99.99,,2013-06-23 15:52:00,
2013-06-23 16:42:00,64.0,33.0,-100.00,East,100,4.0,9.0,31,-99.99,,,-99.99,,2013-06-23 16:42:00,
2013-06-23 17:03:00,63.0,32.0,-100.00,South,170,6.0,8.0,31,-99.99,,,-99.99,,2013-06-23 17:03:00,
2013-06-23 17:11:00,65.0,34.0,-100.00,ESE,115,6.0,10.0,31,-99.99,,,-99.99,,2013-06-23 17:11:00,
2013-06-23 17:22:00,63.0,34.0,-100.00,ESE,115,11.0,14.0,32,-99.99,,,-99.99,,2013-06-23 17:22:00,
2013-06-23 17:43:00,64.0,32.0,-100.00,ESE,115,14.0,17.0,30,-99.99,,,-99.99,,2013-06-23 17:43:00,
2013-06-23 17:52:00,65.0,33.0,-100.00,East,90,7.0,15.0,31,-99.99,,,-99.99,,2013-06-23 17:52:00,
2013-06-23 18:01:00,66.0,35.0,-100.00,ESE,110,11.0,16.0,31,-99.99,,,-99.99,,2013-06-23 18:01:00,
2013-06-23 18:11:00,65.0,35.0,-100.00,ESE,105,12.0,15.0,31,-99.99,,,-99.99,,2013-06-23 18:11:00,
2013-06-23 18:22:00,65.0,34.0,-100.00,ENE,60,11.0,22.0,31,-99.99,,,-99.99,,2013-06-23 18:22:00,
2013-06-23 18:42:00,67.0,34.0,-100.00,East,85,12.0,20.0,29,-99.99,,,-99.99,,2013-06-23 18:42:00,
2013-06-23 18:53:00,68.0,34.0,-100.00,ESE,120,18.0,24.0,28,-99.99,,,-99.99,,2013-06-23 18:53:00,
2013-06-23 19:01:00,68.0,33.0,-100.00,SSE,150,14.0,20.0,27,-99.99,,,-99.99,,2013-06-23 19:01:00,
2013-06-23 19:11:00,68.0,32.0,-100.00,ESE,120,8.0,20.0,26,-99.99,,,-99.99,,2013-06-23 19:11:00,
2013-06-23 19:43:00,71.0,33.0,-100.00,ESE,110,9.0,24.0,24,-99.99,,,-99.99,,2013-06-23 19:43:00,
2013-06-23 19:53:00,71.0,33.0,-100.00,ESE,115,12.0,21.0,24,-99.99,,,-99.99,,2013-06-23 19:53:00,
2013-06-23 20:02:00,71.0,33.0,-100.00,ESE,115,15.0,23.0,24,-99.99,,,-99.99,,2013-06-23 20:02:00,
2013-06-23 20:12:00,71.0,32.0,-100.00,East,100,14.0,24.0,24,-99.99,,,-99.99,,2013-06-23 20:12:00,
2013-06-23 20:42:00,72.0,32.0,-100.00,ESE,120,15.0,24.0,23,-99.99,,,-99.99,,2013-06-23 20:42:00,
2013-06-23 20:52:00,71.0,31.0,-100.00,SE,130,15.0,24.0,23,-99.99,,,-99.99,,2013-06-23 20:52:00,
2013-06-23 21:01:00,71.0,31.0,-100.00,SSE,150,17.0,22.0,22,-99.99,,,-99.99,,2013-06-23 21:01:00,
2013-06-23 21:11:00,73.0,31.0,-100.00,ENE,75,9.0,21.0,21,-99.99,,,-99.99,,2013-06-23 21:11:00,
2013-06-23 21:44:00,74.0,29.0,-100.00,SE,125,17.0,22.0,19,-99.99,,,-99.99,,2013-06-23 21:44:00,
2013-06-23 21:52:00,75.0,30.0,-100.00,East,90,11.0,18.0,19,-99.99,,,-99.99,,2013-06-23 21:52:00,
2013-06-23 22:01:00,74.0,29.0,-100.00,East,100,12.0,24.0,19,-99.99,,,-99.99,,2013-06-23 22:01:00,
2013-06-23 22:11:00,75.0,29.0,-100.00,SE,145,9.0,19.0,18,-99.99,,,-99.99,,2013-06-23 22:11:00,
2013-06-23 22:22:00,74.0,29.0,-100.00,East,85,7.0,21.0,18,-99.99,,,-99.99,,2013-06-23 22:22:00,
2013-06-23 22:32:00,76.0,29.0,-100.00,NE,50,9.0,16.0,17,-99.99,,,-99.99,,2013-06-23 22:32:00,
2013-06-23 22:43:00,76.0,29.0,-100.00,ENE,75,15.0,20.0,17,-99.99,,,-99.99,,2013-06-23 22:43:00,
2013-06-23 22:53:00,76.0,29.0,-100.00,NE,55,12.0,18.0,17,-99.99,,,-99.99,,2013-06-23 22:53:00,
2013-06-23 23:01:00,76.0,28.0,-100.00,NE,45,17.0,20.0,17,-99.99,,,-99.99,,2013-06-23 23:01:00,
2013-06-23 23:11:00,76.0,27.0,-100.00,East,85,14.0,22.0,16,-99.99,,,-99.99,,2013-06-23 23:11:00,
2013-06-23 23:44:00,75.0,26.0,-100.00,NE,50,16.0,20.0,16,-99.99,,,-99.99,,2013-06-23 23:44:00,
2013-06-23 23:52:00,74.0,26.0,-100.00,NE,35,11.0,17.0,16,-99.99,,,-99.99,,2013-06-23 23:52:00,